Printer-friendly version

IAU Minor Planet Center

Minor Planet Center

MPEC 2005-A10 : 2004 PA44

The following Minor Planet Electronic Circular may be linked-to from your own Web pages, but must not otherwise be redistributed electronically.


Read MPEC 2005-A09 Read MPEC 2005-A11


M.P.E.C. 2005-A10                                Issued 2005 Jan. 5, 16:46 UT

     The Minor Planet Electronic Circulars contain information on unusual
         minor planets and routine data on comets.  They are published
   on behalf of Commission 20 of the International Astronomical Union by the
          Minor Planet Center, Smithsonian Astrophysical Observatory,
                          Cambridge, MA 02138, U.S.A.

                  Supported in part by the Brinson Foundation
             Prepared using the Tamkin Foundation Computer Network

                              MPC@CFA.HARVARD.EDU
          URL http://cfa-www.harvard.edu/iau/mpc.html  ISSN 1523-6714

                                   2004 PA44

Additional Observations:
     K04P44A  C2002 04 03.37642 12 41 11.87 -05 55 23.2          21.1 R EA010644
     K04P44A  C2002 04 15.29194 12 36 18.21 -05 20 56.7          20.6 R EA010644
     K04P44A  C2003 04 29.46968 15 10 21.93 -16 38 06.3          19.4 R EA010608
     K04P44A  C2003 04 29.48036 15 10 21.64 -16 38 04.8                 EA010608
     K04P44A  C2003 04 29.49104 15 10 21.34 -16 38 02.7                 EA010608
     K04P44A  C2004 05 02.56485 20 46 05.49 -14 25 40.1          19.4 R EA010608

Observer details:
608 Haleakala-NEAT/MSSS.  Measurer R. Stoss.  1.2-m reflector + CCD.
644 Palomar Mountain/NEAT.  Measurer R. Stoss.  1.2-m Oschin Schmidt + CCD.

Orbital elements:
2004 PA44
Epoch 2005 Jan. 30.0 TT = JDT 2453400.5                 MPC
M   5.72680              (2000.0)            P               Q
n   0.01848156     Peri.   72.76010     +0.26358100     +0.96414425
a  14.1680595      Node   212.57270     -0.90537362     +0.23622893
e   0.7578744      Incl.    3.28363     -0.33290190     +0.12092049
P  53.33           H   13.6           G   0.15           U   2
Residuals in seconds of arc
020403 644  0.1+  0.1-    040718 704  0.3+  0.5-    040811 704  0.7-  0.1-
020415 644  0.2+  0.5+    040718 704  0.2-  0.1+    040811 599  0.2+  0.1+
030429 608  0.3-  0.4-    040718 704  0.5+  0.4+    040811 599  0.1+  0.1+
030429 608  0.1-  0.5-    040718 704  0.6-  0.2-    040811 599  0.5-  0.3-
030429 608  0.0   0.0     040807 644  0.0   0.2+    040813 599  0.0   0.1+
040502 608  0.1-  1.1+    040807 644  0.1-  0.0     040813 599  0.1+  0.2+
040711 704  0.2+  0.1-    040807 644  0.1-  0.1+    040813 599  0.1+  0.3+
040711 704  0.0   0.2+    040811 704  0.4+  0.3-    040813 599  0.3+  0.1+
040711 704  0.4+  0.2-    040811 704  0.2+  0.3-    041108 413  0.2+  0.2-
040711 704  0.3-  0.2-    040811 704  0.5-  0.6+    041108 413  0.1-  0.0
040718 704  0.6+  0.3+    040811 704  0.1-  0.2-    041108 413  0.3-  0.4-

Gareth V. Williams           (C) Copyright 2005 MPC           M.P.E.C. 2005-A10

Read MPEC 2005-A09 Read MPEC 2005-A11


Our Web policy. Index to the CBAT/MPC/ICQ pages.


Valid HTML 4.01!